| time (UTC) | temp F | wind direction | speed MPH | gust MPH | rain 1hr in | rain 24hr in | rain mn in | humidity % | barometer mb |
| 20260509213504 | 64 | 69 | 1.0 | 3.0 | 0.00 | 0.00 | 0.00 | 79 | 1018.6 |
| 20260509213004 | 64 | 59 | 1.0 | 6.0 | 0.00 | 0.00 | 0.00 | 79 | 1018.9 |
| 20260509212503 | 64 | 59 | 2.0 | 6.0 | 0.00 | 0.00 | 0.00 | 79 | 1018.7 |
| 20260509212004 | 64 | 73 | 1.0 | 3.0 | 0.00 | 0.00 | 0.00 | 79 | 1018.6 |
| 20260509211503 | 64 | 91 | 1.0 | 4.0 | 0.00 | 0.00 | 0.00 | 80 | 1018.6 |
| 20260509211004 | 64 | 84 | 1.0 | 4.0 | 0.00 | 0.00 | 0.00 | 80 | 1018.8 |
| 20260509210714 | 64 | 81 | 1.0 | 4.0 | 0.00 | 0.00 | 0.00 | 80 | 1018.7 |
| 20260509210004 | 64 | 86 | 1.0 | 6.0 | 0.00 | 0.00 | 0.00 | 80 | 1018.5 |
| 20260509205503 | 64 | 74 | 1.0 | 4.0 | 0.00 | 0.00 | 0.00 | 80 | 1018.7 |
| 20260509205003 | 64 | 67 | 1.0 | 6.0 | 0.00 | 0.00 | 0.00 | 80 | 1018.9 |
| 20260509204503 | 64 | 77 | 1.0 | 6.0 | 0.00 | 0.00 | 0.00 | 80 | 1018.5 |
| 20260509204003 | 64 | 85 | 1.0 | 4.0 | 0.00 | 0.00 | 0.00 | 80 | 1018.6 |
| 20260509203504 | 64 | 87 | 1.0 | 8.0 | 0.00 | 0.00 | 0.00 | 81 | 1018.9 |
| 20260509203004 | 64 | 88 | 2.0 | 8.0 | 0.00 | 0.00 | 0.00 | 81 | 1018.8 |
| 20260509202718 | 64 | 79 | 2.0 | 8.0 | 0.00 | 0.00 | 0.00 | 81 | 1018.8 |
| 20260509202003 | 64 | 88 | 1.0 | 6.0 | 0.00 | 0.00 | 0.00 | 81 | 1018.7 |
| 20260509201503 | 64 | 91 | 1.0 | 4.0 | 0.00 | 0.00 | 0.00 | 81 | 1018.9 |
| 20260509201003 | 64 | 73 | 2.0 | 7.0 | 0.00 | 0.00 | 0.00 | 81 | 1018.9 |
| 20260509200504 | 64 | 69 | 2.0 | 7.0 | 0.00 | 0.00 | 0.00 | 81 | 1018.3 |
| 20260509200004 | 64 | 65 | 1.0 | 6.0 | 0.00 | 0.00 | 0.00 | 81 | 1018.7 |
| 20260509195503 | 64 | 84 | 1.0 | 4.0 | 0.00 | 0.00 | 0.00 | 82 | 1019.1 |
| 20260509195003 | 64 | 89 | 1.0 | 4.0 | 0.00 | 0.00 | 0.00 | 83 | 1019.3 |
| 20260509194716 | 64 | 91 | 1.0 | 4.0 | 0.00 | 0.00 | 0.00 | 84 | 1019.2 |
| 20260509194003 | 64 | 74 | 1.0 | 2.0 | 0.00 | 0.00 | 0.00 | 85 | 1019.2 |
| 20260509193503 | 64 | 61 | 1.0 | 4.0 | 0.00 | 0.00 | 0.00 | 85 | 1019.2 |
| 20260509193003 | 64 | 57 | 1.0 | 4.0 | 0.00 | 0.00 | 0.00 | 85 | 1019.2 |
| 20260509192503 | 64 | 64 | 1.0 | 7.0 | 0.00 | 0.00 | 0.00 | 85 | 1018.8 |
| 20260509192216 | 64 | 72 | 1.0 | 7.0 | 0.00 | 0.00 | 0.00 | 85 | 1018.5 |
| 20260509191714 | 64 | 114 | 2.0 | 7.0 | 0.00 | 0.00 | 0.00 | 85 | 1018.5 |
| 20260509191004 | 65 | 157 | 2.0 | 7.0 | 0.00 | 0.00 | 0.00 | 84 | 1018.8 |
| 20260509190504 | 65 | 175 | 2.0 | 7.0 | 0.00 | 0.00 | 0.00 | 83 | 1018.5 |
| 20260509190004 | 65 | 71 | 2.0 | 6.0 | 0.00 | 0.00 | 0.00 | 82 | 1018.5 |
| 20260509185503 | 65 | 56 | 3.0 | 11.0 | 0.00 | 0.00 | 0.00 | 82 | 1017.0 |
| 20260509185214 | 65 | 61 | 3.0 | 11.0 | 0.00 | 0.00 | 0.00 | 83 | 1016.6 |
| 20260509184504 | 65 | 60 | 1.0 | 4.0 | 0.00 | 0.00 | 0.00 | 83 | 1017.5 |
| 20260509184003 | 65 | 90 | 1.0 | 4.0 | 0.00 | 0.00 | 0.00 | 83 | 1017.9 |
| 20260509183504 | 65 | 103 | 1.0 | 4.0 | 0.00 | 0.00 | 0.00 | 83 | 1018.8 |
| 20260509183004 | 65 | 184 | 0.0 | 0.0 | 0.00 | 0.00 | 0.00 | 83 | 1019.2 |
| 20260509182503 | 65 | 173 | 0.0 | 2.0 | 0.00 | 0.00 | 0.00 | 83 | 1019.3 |
| 20260509182217 | 65 | 177 | 0.0 | 2.0 | 0.00 | 0.00 | 0.00 | 82 | 1019.6 |
| 20260509181715 | 65 | 156 | 0.0 | 1.0 | 0.00 | 0.00 | 0.00 | 83 | 1019.4 |
| 20260509181004 | 65 | 135 | 1.0 | 3.0 | 0.00 | 0.00 | 0.00 | 83 | 1019.0 |
| 20260509180716 | 65 | 130 | 1.0 | 4.0 | 0.00 | 0.00 | 0.00 | 83 | 1019.0 |
| 20260509180003 | 65 | 96 | 2.0 | 8.0 | 0.00 | 0.00 | 0.00 | 82 | 1018.9 |
| 20260509175503 | 65 | 86 | 2.0 | 8.0 | 0.00 | 0.00 | 0.00 | 81 | 1018.2 |
| 20260509175215 | 65 | 83 | 2.0 | 8.0 | 0.00 | 0.00 | 0.00 | 80 | 1018.0 |
| 20260509174504 | 65 | 80 | 2.0 | 6.0 | 0.00 | 0.00 | 0.00 | 78 | 1018.0 |
| 20260509174004 | 65 | 80 | 2.0 | 7.0 | 0.00 | 0.00 | 0.00 | 77 | 1018.1 |
| 20260509173503 | 65 | 94 | 1.0 | 7.0 | 0.00 | 0.00 | 0.00 | 77 | 1018.1 |
| 20260509173004 | 65 | 87 | 1.0 | 4.0 | 0.00 | 0.00 | 0.00 | 77 | 1018.2 |
| 20260509172503 | 65 | 68 | 1.0 | 4.0 | 0.00 | 0.00 | 0.00 | 77 | 1018.4 |
| 20260509172003 | 66 | 82 | 1.0 | 3.0 | 0.00 | 0.00 | 0.00 | 77 | 1018.4 |
| 20260509171504 | 65 | 75 | 1.0 | 3.0 | 0.00 | 0.00 | 0.00 | 76 | 1018.5 |
| 20260509171004 | 66 | 95 | 2.0 | 6.0 | 0.00 | 0.00 | 0.00 | 76 | 1018.4 |
| 20260509170716 | 66 | 101 | 2.0 | 6.0 | 0.00 | 0.00 | 0.00 | 76 | 1018.4 |
| 20260509170003 | 66 | 86 | 1.0 | 4.0 | 0.00 | 0.00 | 0.00 | 77 | 1018.3 |
| 20260509165503 | 66 | 98 | 2.0 | 6.0 | 0.00 | 0.00 | 0.00 | 77 | 1018.5 |
| 20260509165003 | 66 | 89 | 2.0 | 6.0 | 0.00 | 0.00 | 0.00 | 77 | 1018.2 |
| 20260509164503 | 66 | 75 | 2.0 | 7.0 | 0.00 | 0.00 | 0.00 | 78 | 1018.0 |
| 20260509164216 | 65 | 76 | 2.0 | 7.0 | 0.00 | 0.00 | 0.00 | 77 | 1018.0 |
| 20260509163503 | 65 | 65 | 1.0 | 6.0 | 0.00 | 0.00 | 0.00 | 77 | 1017.6 |
| 20260509163003 | 65 | 94 | 2.0 | 4.0 | 0.00 | 0.00 | 0.00 | 78 | 1017.9 |
| 20260509162504 | 66 | 89 | 2.0 | 7.0 | 0.00 | 0.00 | 0.00 | 79 | 1017.8 |
| 20260509162003 | 66 | 86 | 2.0 | 7.0 | 0.00 | 0.00 | 0.00 | 80 | 1017.6 |
| 20260509161716 | 66 | 88 | 2.0 | 4.0 | 0.00 | 0.00 | 0.00 | 79 | 1017.5 |
| 20260509161003 | 66 | 75 | 2.0 | 8.0 | 0.00 | 0.00 | 0.00 | 77 | 1017.9 |
| 20260509160503 | 66 | 62 | 2.0 | 7.0 | 0.00 | 0.00 | 0.00 | 79 | 1018.0 |
| 20260509160004 | 66 | 56 | 1.0 | 7.0 | 0.00 | 0.00 | 0.00 | 79 | 1018.0 |
| 20260509155504 | 66 | 69 | 1.0 | 4.0 | 0.00 | 0.00 | 0.00 | 81 | 1018.1 |
| 20260509155003 | 65 | 97 | 2.0 | 7.0 | 0.00 | 0.00 | 0.00 | 80 | 1018.1 |
| 20260509154504 | 66 | 95 | 2.0 | 7.0 | 0.00 | 0.00 | 0.00 | 81 | 1018.0 |
| 20260509154003 | 66 | 73 | 2.0 | 9.0 | 0.00 | 0.00 | 0.00 | 78 | 1018.1 |
| 20260509153503 | 66 | 92 | 2.0 | 9.0 | 0.00 | 0.00 | 0.00 | 80 | 1018.1 |
| 20260509153004 | 67 | 112 | 2.0 | 8.0 | 0.00 | 0.00 | 0.00 | 79 | 1018.2 |
| 20260509152504 | 67 | 130 | 2.0 | 8.0 | 0.00 | 0.00 | 0.00 | 78 | 1017.9 |
| 20260509152213 | 67 | 132 | 2.0 | 8.0 | 0.00 | 0.00 | 0.00 | 79 | 1018.3 |
| 20260509151503 | 66 | 91 | 2.0 | 8.0 | 0.00 | 0.00 | 0.00 | 79 | 1018.0 |
| 20260509151003 | 66 | 112 | 3.0 | 10.0 | 0.00 | 0.00 | 0.00 | 80 | 1018.2 |
| 20260509150503 | 67 | 117 | 2.0 | 10.0 | 0.00 | 0.00 | 0.00 | 78 | 1018.1 |
| 20260509150003 | 66 | 112 | 3.0 | 10.0 | 0.00 | 0.00 | 0.00 | 78 | 1018.0 |
| 20260509145503 | 67 | 113 | 3.0 | 10.0 | 0.00 | 0.00 | 0.00 | 78 | 1018.0 |
| 20260509145216 | 67 | 111 | 3.0 | 9.0 | 0.00 | 0.00 | 0.00 | 78 | 1017.9 |
| 20260509144503 | 66 | 95 | 2.0 | 6.0 | 0.00 | 0.00 | 0.00 | 80 | 1018.1 |
| 20260509144003 | 67 | 97 | 3.0 | 9.0 | 0.00 | 0.00 | 0.00 | 78 | 1018.2 |
| 20260509143505 | 67 | 112 | 4.0 | 9.0 | 0.00 | 0.00 | 0.00 | 79 | 1018.3 |
| 20260509143004 | 67 | 118 | 4.0 | 10.0 | 0.00 | 0.00 | 0.00 | 78 | 1018.4 |
| 20260509142504 | 67 | 109 | 3.0 | 10.0 | 0.00 | 0.00 | 0.00 | 78 | 1018.1 |
| 20260509142004 | 67 | 104 | 3.0 | 8.0 | 0.00 | 0.00 | 0.00 | 78 | 1018.2 |
| 20260509141504 | 66 | 114 | 3.0 | 8.0 | 0.00 | 0.00 | 0.00 | 79 | 1018.4 |
| 20260509141004 | 67 | 103 | 2.0 | 7.0 | 0.00 | 0.00 | 0.00 | 78 | 1018.1 |
| 20260509140505 | 67 | 79 | 2.0 | 7.0 | 0.00 | 0.00 | 0.00 | 78 | 1018.1 |
| 20260509140006 | 67 | 80 | 2.0 | 6.0 | 0.00 | 0.00 | 0.00 | 78 | 1018.2 |
| 20260509135505 | 67 | 89 | 2.0 | 9.0 | 0.00 | 0.00 | 0.00 | 79 | 1018.3 |
| 20260509135003 | 67 | 96 | 2.0 | 9.0 | 0.00 | 0.00 | 0.00 | 79 | 1018.4 |
| 20260509134504 | 68 | 110 | 2.0 | 6.0 | 0.00 | 0.00 | 0.00 | 78 | 1018.3 |
| 20260509134004 | 67 | 111 | 3.0 | 10.0 | 0.00 | 0.00 | 0.00 | 78 | 1018.4 |
| 20260509133506 | 67 | 118 | 3.0 | 10.0 | 0.00 | 0.00 | 0.00 | 78 | 1018.5 |
| 20260509133004 | 67 | 114 | 3.0 | 8.0 | 0.00 | 0.00 | 0.00 | 78 | 1018.2 |
| 20260509132505 | 67 | 118 | 3.0 | 8.0 | 0.00 | 0.00 | 0.00 | 79 | 1018.2 |
| 20260509132215 | 68 | 123 | 3.0 | 8.0 | 0.00 | 0.00 | 0.00 | 77 | 1018.1 |
| 20260509131504 | 68 | 139 | 3.0 | 9.0 | 0.00 | 0.00 | 0.00 | 77 | 1018.3 |
| 20260509131004 | 68 | 127 | 2.0 | 7.0 | 0.00 | 0.00 | 0.00 | 78 | 1018.2 |
| 20260509130504 | 68 | 110 | 2.0 | 10.0 | 0.00 | 0.00 | 0.00 | 78 | 1018.4 |
| 20260509130003 | 67 | 88 | 3.0 | 10.0 | 0.00 | 0.00 | 0.00 | 79 | 1018.4 |
| 20260509125504 | 67 | 82 | 3.0 | 9.0 | 0.00 | 0.00 | 0.00 | 80 | 1018.3 |
| 20260509125213 | 67 | 83 | 2.0 | 9.0 | 0.00 | 0.00 | 0.00 | 80 | 1018.5 |
| 20260509124504 | 67 | 98 | 3.0 | 8.0 | 0.00 | 0.00 | 0.00 | 79 | 1018.4 |
| 20260509124003 | 67 | 87 | 3.0 | 10.0 | 0.00 | 0.00 | 0.00 | 80 | 1018.4 |
| 20260509123504 | 67 | 98 | 3.0 | 10.0 | 0.00 | 0.00 | 0.00 | 79 | 1018.5 |
| 20260509123003 | 68 | 133 | 3.0 | 9.0 | 0.00 | 0.00 | 0.00 | 79 | 1018.5 |
| 20260509122504 | 68 | 123 | 3.0 | 11.0 | 0.00 | 0.00 | 0.00 | 78 | 1018.4 |
| 20260509122004 | 68 | 98 | 3.0 | 11.0 | 0.00 | 0.00 | 0.00 | 78 | 1018.5 |
| 20260509121503 | 68 | 99 | 3.0 | 9.0 | 0.00 | 0.00 | 0.00 | 78 | 1018.2 |
| 20260509121005 | 68 | 100 | 3.0 | 9.0 | 0.00 | 0.00 | 0.00 | 80 | 1018.4 |
| 20260509120506 | 68 | 96 | 2.0 | 7.0 | 0.00 | 0.00 | 0.00 | 79 | 1018.3 |
| 20260509120003 | 68 | 92 | 3.0 | 10.0 | 0.00 | 0.00 | 0.00 | 78 | 1018.3 |
| 20260509115505 | 69 | 93 | 3.0 | 10.0 | 0.00 | 0.00 | 0.00 | 77 | 1018.5 |
| 20260509115004 | 68 | 88 | 2.0 | 8.0 | 0.00 | 0.00 | 0.00 | 78 | 1018.4 |
| 20260509114504 | 69 | 92 | 2.0 | 11.0 | 0.00 | 0.00 | 0.00 | 77 | 1018.3 |
| 20260509114004 | 69 | 115 | 3.0 | 11.0 | 0.00 | 0.00 | 0.00 | 78 | 1018.4 |
| 20260509113503 | 70 | 124 | 2.0 | 8.0 | 0.00 | 0.00 | 0.00 | 76 | 1018.1 |
| 20260509113003 | 69 | 107 | 3.0 | 7.0 | 0.00 | 0.00 | 0.00 | 78 | 1018.2 |
| 20260509112504 | 68 | 108 | 3.0 | 10.0 | 0.00 | 0.00 | 0.00 | 79 | 1018.3 |
| 20260509112216 | 69 | 112 | 3.0 | 10.0 | 0.00 | 0.00 | 0.00 | 78 | 1018.4 |
| 20260509111504 | 69 | 100 | 2.0 | 7.0 | 0.00 | 0.00 | 0.00 | 77 | 1018.4 |
| 20260509111004 | 70 | 103 | 2.0 | 9.0 | 0.00 | 0.00 | 0.00 | 77 | 1018.6 |
| 20260509110503 | 69 | 104 | 3.0 | 10.0 | 0.00 | 0.00 | 0.00 | 76 | 1018.3 |
| 20260509110004 | 69 | 107 | 3.0 | 10.0 | 0.00 | 0.00 | 0.00 | 76 | 1018.5 |
| 20260509105505 | 69 | 117 | 3.0 | 8.0 | 0.00 | 0.00 | 0.00 | 78 | 1018.6 |
| 20260509105004 | 70 | 110 | 3.0 | 8.0 | 0.00 | 0.00 | 0.00 | 76 | 1018.4 |
| 20260509104503 | 69 | 106 | 2.0 | 5.0 | 0.00 | 0.00 | 0.00 | 78 | 1018.4 |
| 20260509104004 | 70 | 119 | 3.0 | 8.0 | 0.00 | 0.00 | 0.00 | 77 | 1018.2 |
| 20260509103718 | 69 | 105 | 3.0 | 8.0 | 0.00 | 0.00 | 0.00 | 78 | 1018.4 |
| 20260509103005 | 69 | 114 | 3.0 | 9.0 | 0.00 | 0.00 | 0.00 | 76 | 1018.3 |
| 20260509102504 | 70 | 119 | 3.0 | 9.0 | 0.00 | 0.00 | 0.00 | 78 | 1018.2 |
| 20260509102004 | 70 | 126 | 2.0 | 11.0 | 0.00 | 0.00 | 0.00 | 76 | 1018.2 |
| 20260509101503 | 70 | 121 | 4.0 | 11.0 | 0.00 | 0.00 | 0.00 | 76 | 1018.3 |
| 20260509101004 | 69 | 104 | 4.0 | 9.0 | 0.00 | 0.00 | 0.00 | 77 | 1018.3 |
| 20260509100716 | 70 | 100 | 3.0 | 8.0 | 0.00 | 0.00 | 0.00 | 76 | 1018.4 |
| 20260509100005 | 70 | 111 | 2.0 | 4.0 | 0.00 | 0.00 | 0.00 | 76 | 1018.4 |
| 20260509095503 | 71 | 101 | 2.0 | 8.0 | 0.00 | 0.00 | 0.00 | 76 | 1018.1 |
| 20260509095005 | 69 | 80 | 2.0 | 8.0 | 0.00 | 0.00 | 0.00 | 78 | 1018.5 |
| 20260509094504 | 69 | 94 | 2.0 | 10.0 | 0.00 | 0.00 | 0.00 | 78 | 1018.4 |
| 20260509094005 | 69 | 117 | 3.0 | 10.0 | 0.00 | 0.00 | 0.00 | 79 | 1018.4 |
| 20260509093505 | 70 | 116 | 3.0 | 8.0 | 0.00 | 0.00 | 0.00 | 77 | 1018.5 |
| 20260509093004 | 70 | 113 | 3.0 | 7.0 | 0.00 | 0.00 | 0.00 | 77 | 1018.5 |
| 20260509092504 | 68 | 110 | 3.0 | 8.0 | 0.00 | 0.00 | 0.00 | 80 | 1018.5 |
| 20260509092003 | 68 | 112 | 3.0 | 8.0 | 0.00 | 0.00 | 0.00 | 80 | 1018.6 |
| 20260509091715 | 69 | 126 | 3.0 | 11.0 | 0.00 | 0.00 | 0.00 | 79 | 1018.4 |
| 20260509091004 | 69 | 136 | 3.0 | 11.0 | 0.00 | 0.00 | 0.00 | 80 | 1018.4 |
| 20260509090504 | 69 | 129 | 2.0 | 6.0 | 0.00 | 0.00 | 0.00 | 78 | 1018.6 |
| 20260509090004 | 70 | 107 | 3.0 | 11.0 | 0.00 | 0.00 | 0.00 | 76 | 1018.4 |
| 20260509085509 | 69 | 107 | 3.0 | 11.0 | 0.00 | 0.00 | 0.00 | 78 | 1018.2 |
| 20260509085005 | 69 | 127 | 2.0 | 8.0 | 0.00 | 0.00 | 0.00 | 77 | 1018.2 |
| 20260509084505 | 69 | 109 | 3.0 | 6.0 | 0.00 | 0.00 | 0.00 | 77 | 1018.1 |
| 20260509084004 | 69 | 96 | 3.0 | 10.0 | 0.00 | 0.00 | 0.00 | 79 | 1018.2 |
| 20260509083503 | 68 | 99 | 3.0 | 10.0 | 0.00 | 0.00 | 0.00 | 79 | 1018.1 |
| 20260509083004 | 69 | 123 | 3.0 | 8.0 | 0.00 | 0.00 | 0.00 | 77 | 1018.2 |
| 20260509082504 | 70 | 119 | 2.0 | 8.0 | 0.00 | 0.00 | 0.00 | 75 | 1018.0 |
| 20260509082004 | 69 | 115 | 3.0 | 8.0 | 0.00 | 0.00 | 0.00 | 78 | 1018.2 |
| 20260509081716 | 68 | 119 | 3.0 | 6.0 | 0.00 | 0.00 | 0.00 | 79 | 1018.0 |
| 20260509081006 | 69 | 105 | 3.0 | 10.0 | 0.00 | 0.00 | 0.00 | 78 | 1018.0 |
| 20260509080504 | 69 | 111 | 3.0 | 8.0 | 0.00 | 0.00 | 0.00 | 79 | 1017.8 |
| 20260509080006 | 70 | 118 | 2.0 | 8.0 | 0.00 | 0.00 | 0.00 | 76 | 1018.0 |
| 20260509075504 | 69 | 122 | 2.0 | 9.0 | 0.00 | 0.00 | 0.00 | 76 | 1018.2 |
| 20260509075004 | 70 | 126 | 2.0 | 9.0 | 0.00 | 0.00 | 0.00 | 75 | 1018.1 |
| 20260509074505 | 70 | 95 | 2.0 | 6.0 | 0.00 | 0.00 | 0.00 | 75 | 1018.1 |
| 20260509074005 | 69 | 116 | 3.0 | 9.0 | 0.00 | 0.00 | 0.00 | 77 | 1017.8 |
| 20260509073715 | 68 | 122 | 4.0 | 9.0 | 0.00 | 0.00 | 0.00 | 78 | 1017.9 |
| 20260509073004 | 68 | 119 | 3.0 | 7.0 | 0.00 | 0.00 | 0.00 | 77 | 1018.0 |
| 20260509072504 | 68 | 107 | 3.0 | 9.0 | 0.00 | 0.00 | 0.00 | 78 | 1017.9 |
| 20260509072003 | 68 | 117 | 3.0 | 9.0 | 0.00 | 0.00 | 0.00 | 78 | 1017.8 |
| 20260509071503 | 68 | 112 | 3.0 | 8.0 | 0.00 | 0.00 | 0.00 | 78 | 1017.6 |
| 20260509071215 | 67 | 101 | 3.0 | 8.0 | 0.00 | 0.00 | 0.00 | 78 | 1017.9 |
| 20260509070718 | 68 | 110 | 2.0 | 6.0 | 0.00 | 0.00 | 0.00 | 78 | 1017.8 |
| 20260509070004 | 68 | 119 | 3.0 | 8.0 | 0.00 | 0.00 | 0.00 | 77 | 1017.8 |
| 20260509065713 | 69 | 108 | 3.0 | 8.0 | 0.00 | 0.00 | 0.00 | 76 | 1017.9 |
| 20260509065003 | 68 | 133 | 3.0 | 11.0 | 0.00 | 0.00 | 0.00 | 77 | 1017.7 |
| 20260509064505 | 69 | 134 | 3.0 | 11.0 | 0.00 | 0.00 | 0.00 | 75 | 1017.6 |
| 20260509064218 | 69 | 124 | 2.0 | 7.0 | 0.00 | 0.00 | 0.00 | 76 | 1017.7 |
| 20260509063505 | 69 | 103 | 2.0 | 4.0 | 0.00 | 0.00 | 0.00 | 76 | 1017.7 |
| 20260509063005 | 69 | 104 | 2.0 | 8.0 | 0.00 | 0.00 | 0.00 | 77 | 1017.5 |
| 20260509062504 | 69 | 114 | 2.0 | 8.0 | 0.00 | 0.00 | 0.00 | 74 | 1017.4 |
| 20260509062003 | 70 | 137 | 1.0 | 4.0 | 0.00 | 0.00 | 0.00 | 73 | 1017.5 |
| 20260509061505 | 70 | 146 | 1.0 | 4.0 | 0.00 | 0.00 | 0.00 | 73 | 1017.4 |
| 20260509061004 | 69 | 137 | 1.0 | 3.0 | 0.00 | 0.00 | 0.00 | 73 | 1017.5 |
| 20260509060503 | 69 | 119 | 1.0 | 2.0 | 0.00 | 0.00 | 0.00 | 73 | 1017.1 |
| 20260509060005 | 70 | 115 | 0.0 | 1.0 | 0.00 | 0.00 | 0.00 | 73 | 1017.1 |
| 20260509055503 | 69 | 107 | 0.0 | 1.0 | 0.00 | 0.00 | 0.00 | 75 | 1017.1 |
| 20260509055003 | 68 | 101 | 0.0 | 1.0 | 0.00 | 0.00 | 0.00 | 76 | 1017.3 |
| 20260509054504 | 68 | 106 | 0.0 | 3.0 | 0.00 | 0.00 | 0.00 | 77 | 1017.2 |
| 20260509054003 | 67 | 121 | 1.0 | 3.0 | 0.00 | 0.00 | 0.00 | 78 | 1017.3 |
| 20260509053504 | 67 | 126 | 1.0 | 3.0 | 0.00 | 0.00 | 0.00 | 79 | 1017.3 |
| 20260509053003 | 67 | 121 | 0.0 | 3.0 | 0.00 | 0.00 | 0.00 | 80 | 1017.2 |
| 20260509052504 | 67 | 147 | 0.0 | 1.0 | 0.00 | 0.00 | 0.00 | 79 | 1017.2 |
| 20260509052003 | 67 | 136 | 0.0 | 1.0 | 0.00 | 0.00 | 0.00 | 79 | 1017.1 |
| 20260509051504 | 66 | 80 | 0.0 | 1.0 | 0.00 | 0.00 | 0.00 | 80 | 1017.2 |
| 20260509051003 | 65 | 107 | 0.0 | 1.0 | 0.00 | 0.00 | 0.00 | 82 | 1017.1 |
| 20260509050714 | 65 | 107 | 0.0 | 1.0 | 0.00 | 0.00 | 0.00 | 82 | 1017.0 |
| 20260509050004 | 65 | 59 | 0.0 | 1.0 | 0.00 | 0.00 | 0.00 | 83 | 1017.2 |
| 20260509045503 | 64 | 90 | 0.0 | 2.0 | 0.00 | 0.00 | 0.00 | 84 | 1017.1 |
| 20260509045004 | 64 | 103 | 0.0 | 2.0 | 0.00 | 0.00 | 0.00 | 84 | 1017.2 |
| 20260509044504 | 64 | 67 | 0.0 | 4.0 | 0.00 | 0.00 | 0.00 | 84 | 1017.1 |
| 20260509044003 | 64 | 40 | 0.0 | 4.0 | 0.00 | 0.00 | 0.00 | 84 | 1017.3 |
| 20260509043504 | 64 | 79 | 0.0 | 1.0 | 0.00 | 0.00 | 0.00 | 84 | 1017.1 |
| 20260509043004 | 63 | 89 | 0.0 | 2.0 | 0.00 | 0.00 | 0.00 | 84 | 1017.2 |
| 20260509042504 | 63 | 85 | 0.0 | 3.0 | 0.00 | 0.00 | 0.00 | 84 | 1017.1 |
| 20260509042004 | 63 | 81 | 0.0 | 3.0 | 0.00 | 0.00 | 0.00 | 84 | 1017.1 |
| 20260509041503 | 63 | 97 | 0.0 | 2.0 | 0.00 | 0.00 | 0.00 | 83 | 1017.0 |
| 20260509041004 | 63 | 91 | 0.0 | 2.0 | 0.00 | 0.00 | 0.00 | 83 | 1016.8 |
| 20260509040503 | 63 | 137 | 0.0 | 1.0 | 0.00 | 0.00 | 0.00 | 82 | 1016.9 |
| 20260509040005 | 63 | 177 | 0.0 | 1.0 | 0.00 | 0.00 | 0.00 | 82 | 1016.9 |
| 20260509035503 | 63 | 269 | 0.0 | 1.0 | 0.00 | 0.00 | 0.00 | 82 | 1016.7 |
| 20260509035004 | 63 | 306 | 0.0 | 2.0 | 0.00 | 0.00 | 0.00 | 82 | 1016.8 |
| 20260509034504 | 63 | 342 | 1.0 | 2.0 | 0.00 | 0.00 | 0.00 | 82 | 1016.5 |
| 20260509034003 | 63 | 331 | 1.0 | 3.0 | 0.00 | 0.00 | 0.00 | 82 | 1016.6 |
| 20260509033504 | 63 | 332 | 1.0 | 3.0 | 0.00 | 0.00 | 0.00 | 82 | 1016.5 |
| 20260509033003 | 63 | 337 | 1.0 | 3.0 | 0.00 | 0.00 | 0.00 | 82 | 1016.4 |
| 20260509032504 | 63 | 303 | 1.0 | 3.0 | 0.00 | 0.00 | 0.00 | 83 | 1016.3 |
| 20260509032004 | 63 | 270 | 0.0 | 2.0 | 0.00 | 0.00 | 0.00 | 83 | 1016.3 |
| 20260509031503 | 62 | 206 | 0.0 | 1.0 | 0.00 | 0.00 | 0.00 | 84 | 1016.2 |
| 20260509031003 | 63 | 239 | 0.0 | 1.0 | 0.00 | 0.00 | 0.00 | 84 | 1016.3 |
| 20260509030504 | 63 | 265 | 1.0 | 2.0 | 0.00 | 0.00 | 0.00 | 84 | 1016.2 |
| 20260509030004 | 63 | 298 | 1.0 | 2.0 | 0.00 | 0.00 | 0.00 | 83 | 1016.3 |
| 20260509025503 | 63 | 319 | 0.0 | 2.0 | 0.00 | 0.00 | 0.00 | 83 | 1016.3 |
| 20260509025004 | 63 | 119 | 0.0 | 1.0 | 0.00 | 0.00 | 0.00 | 84 | 1016.2 |
| 20260509024504 | 63 | 166 | 0.0 | 1.0 | 0.00 | 0.00 | 0.00 | 84 | 1016.1 |
| 20260509024003 | 63 | 172 | 0.0 | 1.0 | 0.00 | 0.00 | 0.00 | 84 | 1016.1 |
| 20260509023718 | 63 | 186 | 0.0 | 1.0 | 0.00 | 0.00 | 0.00 | 84 | 1015.9 |
| 20260509023003 | 63 | 168 | 0.0 | 1.0 | 0.00 | 0.00 | 0.00 | 84 | 1015.9 |
| 20260509022504 | 63 | 161 | 0.0 | 1.0 | 0.00 | 0.00 | 0.00 | 83 | 1016.0 |
| 20260509022004 | 63 | 158 | 0.0 | 1.0 | 0.00 | 0.00 | 0.00 | 84 | 1015.8 |
| 20260509021503 | 63 | 172 | 0.0 | 1.0 | 0.00 | 0.00 | 0.00 | 84 | 1015.9 |
| 20260509021003 | 63 | 168 | 0.0 | 1.0 | 0.00 | 0.00 | 0.00 | 84 | 1015.7 |
| 20260509020504 | 63 | 166 | 0.0 | 1.0 | 0.00 | 0.00 | 0.00 | 84 | 1015.8 |
| 20260509020003 | 63 | 164 | 0.0 | 1.0 | 0.00 | 0.00 | 0.00 | 84 | 1016.0 |
| 20260509015504 | 63 | 167 | 0.0 | 1.0 | 0.00 | 0.00 | 0.00 | 84 | 1016.0 |
| 20260509015004 | 63 | 0 | 0.0 | 0.0 | 0.00 | 0.00 | 0.00 | 84 | 1015.9 |
| 20260509014503 | 63 | 264 | 0.0 | 1.0 | 0.00 | 0.00 | 0.00 | 84 | 1015.8 |
| 20260509014003 | 63 | 316 | 0.0 | 3.0 | 0.00 | 0.00 | 0.00 | 84 | 1016.0 |
| 20260509013713 | 63 | 310 | 1.0 | 3.0 | 0.00 | 0.00 | 0.00 | 84 | 1015.9 |
| 20260509013003 | 63 | 296 | 0.0 | 2.0 | 0.00 | 0.00 | 0.00 | 84 | 1015.8 |
| 20260509012504 | 63 | 291 | 0.0 | 2.0 | 0.00 | 0.00 | 0.00 | 85 | 1015.8 |
| 20260509012217 | 63 | 276 | 0.0 | 2.0 | 0.00 | 0.00 | 0.00 | 85 | 1015.8 |
| 20260509011503 | 63 | 0 | 0.0 | 0.0 | 0.00 | 0.00 | 0.00 | 85 | 1015.8 |
| 20260509011004 | 63 | 0 | 0.0 | 0.0 | 0.00 | 0.00 | 0.00 | 86 | 1015.9 |
| 20260509010503 | 63 | 169 | 0.0 | 0.0 | 0.00 | 0.00 | 0.00 | 85 | 1015.8 |
| 20260509010004 | 63 | 170 | 0.0 | 0.0 | 0.00 | 0.00 | 0.00 | 85 | 1015.8 |
| 20260509005504 | 63 | 167 | 0.0 | 1.0 | 0.00 | 0.00 | 0.00 | 85 | 1015.6 |
| 20260509005003 | 63 | 171 | 0.0 | 2.0 | 0.00 | 0.00 | 0.00 | 85 | 1015.9 |
| 20260509004718 | 63 | 169 | 0.0 | 2.0 | 0.00 | 0.00 | 0.00 | 85 | 1015.8 |
| 20260509004004 | 63 | 160 | 0.0 | 1.0 | 0.00 | 0.00 | 0.00 | 86 | 1015.9 |
| 20260509003504 | 63 | 166 | 0.0 | 1.0 | 0.00 | 0.00 | 0.00 | 86 | 1015.8 |
| 20260509003004 | 63 | 181 | 0.0 | 1.0 | 0.00 | 0.00 | 0.00 | 86 | 1015.8 |
| 20260509002504 | 63 | 188 | 0.0 | 1.0 | 0.00 | 0.00 | 0.00 | 86 | 1015.8 |
| 20260509002003 | 64 | 183 | 0.0 | 1.0 | 0.00 | 0.00 | 0.00 | 86 | 1015.9 |
| 20260509001504 | 64 | 179 | 0.0 | 1.0 | 0.00 | 0.00 | 0.00 | 86 | 1015.9 |
| 20260509001004 | 64 | 180 | 0.0 | 1.0 | 0.00 | 0.00 | 0.00 | 86 | 1015.9 |
| 20260509000504 | 64 | 171 | 0.0 | 1.0 | 0.00 | 0.00 | 0.00 | 86 | 1016.0 |
| 20260509000004 | 64 | 163 | 1.0 | 2.0 | 0.00 | 0.00 | 0.00 | 87 | 1015.9 |
| 20260508235504 | 64 | 170 | 0.0 | 2.0 | 0.00 | 0.00 | 0.00 | 87 | 1015.9 |
| 20260508235004 | 64 | 185 | 0.0 | 1.0 | 0.00 | 0.00 | 0.00 | 86 | 1016.0 |
| 20260508234503 | 64 | 180 | 0.0 | 1.0 | 0.00 | 0.00 | 0.00 | 86 | 1015.9 |
| 20260508234004 | 64 | 184 | 0.0 | 1.0 | 0.00 | 0.00 | 0.00 | 86 | 1016.0 |
| 20260508233715 | 64 | 192 | 0.0 | 1.0 | 0.00 | 0.00 | 0.00 | 86 | 1015.9 |
| 20260508233004 | 64 | 197 | 0.0 | 1.0 | 0.00 | 0.00 | 0.00 | 86 | 1015.8 |
| 20260508232503 | 64 | 154 | 0.0 | 1.0 | 0.00 | 0.00 | 0.00 | 86 | 1016.0 |
| 20260508232003 | 64 | 158 | 0.0 | 1.0 | 0.00 | 0.00 | 0.00 | 86 | 1016.0 |
| 20260508231503 | 65 | 187 | 0.0 | 1.0 | 0.00 | 0.00 | 0.00 | 85 | 1015.9 |
| 20260508231003 | 65 | 188 | 0.0 | 1.0 | 0.00 | 0.00 | 0.00 | 85 | 1016.2 |
| 20260508230503 | 65 | 171 | 0.0 | 1.0 | 0.00 | 0.00 | 0.00 | 84 | 1016.0 |
| 20260508230004 | 64 | 0 | 0.0 | 0.0 | 0.00 | 0.00 | 0.00 | 84 | 1016.0 |
| 20260508225503 | 64 | 0 | 0.0 | 0.0 | 0.00 | 0.00 | 0.00 | 84 | 1016.1 |
| 20260508225003 | 64 | 0 | 0.0 | 0.0 | 0.00 | 0.00 | 0.00 | 84 | 1016.0 |
| 20260508224715 | 64 | 190 | 0.0 | 1.0 | 0.00 | 0.00 | 0.00 | 84 | 1016.1 |
| 20260508224003 | 64 | 190 | 0.0 | 1.0 | 0.00 | 0.00 | 0.00 | 84 | 1016.0 |
| 20260508223503 | 64 | 0 | 0.0 | 0.0 | 0.00 | 0.00 | 0.00 | 85 | 1015.9 |
| 20260508223003 | 64 | 210 | 0.0 | 1.0 | 0.00 | 0.00 | 0.00 | 85 | 1015.9 |
| 20260508222504 | 64 | 210 | 0.0 | 1.0 | 0.00 | 0.00 | 0.00 | 85 | 1015.8 |
| 20260508222004 | 64 | 241 | 0.0 | 1.0 | 0.00 | 0.00 | 0.00 | 85 | 1015.7 |
| 20260508221504 | 64 | 241 | 0.0 | 1.0 | 0.00 | 0.00 | 0.00 | 85 | 1015.8 |
| 20260508221004 | 64 | 234 | 0.0 | 0.0 | 0.00 | 0.00 | 0.00 | 85 | 1015.6 |
| 20260508220504 | 64 | 274 | 0.0 | 1.0 | 0.00 | 0.00 | 0.00 | 85 | 1015.6 |
| 20260508220008 | 64 | 271 | 0.0 | 1.0 | 0.00 | 0.00 | 0.00 | 86 | 1015.6 |
| 20260508215503 | 65 | 257 | 0.0 | 1.0 | 0.00 | 0.00 | 0.00 | 85 | 1015.5 |
| 20260508215004 | 65 | 0 | 0.0 | 0.0 | 0.00 | 0.00 | 0.00 | 85 | 1015.6 |
| 20260508214504 | 65 | 0 | 0.0 | 0.0 | 0.00 | 0.00 | 0.00 | 85 | 1015.6 |
| 20260508214004 | 65 | 192 | 0.0 | 1.0 | 0.00 | 0.00 | 0.00 | 84 | 1015.5 |